EXPRESS AM-5

导读 | 豆包AI

EXPRESS AM-5(“快讯”AM-5)是隶属于独联体(CIS)俄罗斯的固定通信卫星,由俄美联合研制,于2013年12月26日通过“质子”火箭发射入轨,定点东经140°。它配备多频段转发器,是俄罗斯首颗搭载Ka频段载荷的通信卫星,主要为亚太及澳大利亚地区提供广播电视、数据通信等服务,设计寿命15年,还承担政府通信保障任务。

Basic Information
目录编号:
39487
目录名称:
EXPRESS AM-5
国际标识:
2013-077A
轨道中心:
EARTH
卫星名称:
EXPRESS AM-5
卫星全名:
--
卫星状态:
在轨 (已飞行4508 天)
发射日期:
2013-12-26 UTC
国别 :
俄罗斯(独联体) (CIS)
星等 :
--
Orbit Information
数据来源 国际轨道数据 AOE轨道数据
星历时间 2026-04-30T22:03:44+0800
6小时前
查看轨道信息
2026-05-01T00:00:00+0800
4小时前
查看轨道信息
半长轴 42164.756km 42164.924km
偏心率 0.0001551 0.0001484
轨道倾角 0.016° 0.015°
近地点辐角 47.993° 54.555°
升交点赤经 263.991° 259.976°
平近点角 257.528° 284.125°
近地点 35780.079km 35780.529km
远地点 35793.159km 35793.045km
周期 1436.098分钟 1436.107分钟
每日圈数 1.002717 1.002711
Detailed Information
使用方式:
暂无
2D Orbit Map
3D Orbit Map
Orbit Altitude Analysis Chart
Orbit Inclination Analysis Chart
Orbit Comprehensive Analysis Chart
View Comprehensive Chart